Location: Asheville, NC
(35.6000°N, 82.5500°W)
Time: 17:31:44
(UTC-04:00)

Vanguard 2 - Pass Details

Date: 12 December 2017
Orbit: 553 x 2939 km, 32.9° (Epoch: 21 July)

Event Time Altitude Azimuth Distance (km) Brightness Sun altitude
Rises 17:55:26 0° 262° (W) 3,691 12.9 -7.8°
Reaches altitude 10° 17:58:32 10° 259° (W) 2,442 11.7 -8.3°
Maximum altitude 18:03:50 63° 179° (S) 714 7.5 -9.3°
Drops below altitude 10° 18:07:50 10° 98° (E) 1,850 9.0 -10.1°
Enters shadow 18:07:50 10° 98° (E) 1,852 9.0 -10.1°
